Date String (YYYY-MM-DD hh:mm:ss) UTC,Instrument flags,Ambient pressure (hPa),Sample flow (lpm),Bypass flow (lpm),Sample temperature (°C),Ambient temperature (°C),ASC tube jacket temperature (°C),LED temperature (°C),Box temperature (°C),Sample RH (%),Span deviation,Mass concentration (μg/m³),Mass concentration (μg/m³),Mass concentration (μg/m³)
DateTimeUTC,F1_M11,P_M11,Q1_M11,Q2_M11,T1_M11,T2_M11,T3_M11,T4_M11,T5_M11,U1_M11,ZSPAN_M11,X0_M11,X2_M11,X1_M11
2022-12-01 01:00:00,,0822.3,5.00,0.00,22.7,21.0,00.0,31.8,24.5,09.4,0000.4,0019.83,0014.85,0014.19
2022-12-01 01:01:00,,0822.3,5.01,0.00,22.7,21.0,00.0,31.8,24.5,09.4,0000.3,0020.32,0015.07,0014.37
2022-12-01 01:02:00,,0822.2,5.01,0.00,22.7,20.9,00.0,31.8,24.5,09.5,0000.1,0020.47,0015.41,0014.70
2022-12-01 01:03:00,,0822.2,5.01,0.00,22.7,20.9,00.0,31.8,24.5,09.5,0000.2,0020.76,0015.76,0015.07
2022-12-01 01:04:00,,0822.2,5.00,0.00,22.7,20.9,00.0,31.8,24.5,09.5,0000.7,0020.96,0016.02,0015.36
2022-12-01 01:05:00,,0822.3,4.98,0.00,22.6,20.9,00.0,31.7,24.4,09.6,0001.0,0021.25,0016.27,0015.62
2022-12-01 01:06:00,,0822.3,5.00,0.00,22.6,20.9,00.0,31.7,24.4,09.5,0001.5,0021.06,0016.47,0015.82
2022-12-01 01:07:00,,0822.3,5.01,0.00,22.6,20.8,00.0,31.7,24.4,09.6,0001.1,0021.09,0016.56,0015.99
2022-12-01 01:08:00,,0822.3,5.00,0.00,22.6,20.8,00.0,31.7,24.4,09.6,0001.2,0021.28,0016.75,0016.17
2022-12-01 01:09:00,,0822.3,5.00,0.00,22.6,20.8,00.0,31.7,24.3,09.6,0001.3,0021.48,0016.91,0016.35
2022-12-01 01:10:00,,0822.4,4.99,0.00,22.6,20.8,00.0,31.6,24.3,09.6,0000.8,0021.71,0017.09,0016.54
2022-12-01 01:11:00,,0822.3,4.99,0.00,22.5,20.8,00.0,31.6,24.3,09.6,0000.4,0021.98,0017.30,0016.72
2022-12-01 01:12:00,,0822.2,5.01,0.00,22.5,20.8,00.0,31.6,24.3,09.6,-000.1,0022.12,0017.54,0016.93
2022-12-01 01:13:00,,0822.2,5.02,0.00,22.5,20.8,00.0,31.6,24.3,09.8,-000.1,0022.54,0017.71,0017.06
2022-12-01 01:14:00,,0822.2,4.99,0.00,22.5,20.8,00.0,31.6,24.3,09.8,0000.1,0022.96,0017.77,0017.11
2022-12-01 01:15:00,,0822.4,4.99,0.00,22.5,20.8,00.0,31.5,24.3,09.6,0000.2,0022.96,0017.74,0017.06
2022-12-01 01:16:00,,0822.4,5.00,0.00,22.5,20.7,00.0,31.5,24.2,09.7,0000.1,0023.03,0017.80,0017.08
2022-12-01 01:17:00,,0822.4,5.01,0.00,22.4,20.7,00.0,31.5,24.2,09.8,0000.0,0023.17,0017.89,0017.15
2022-12-01 01:18:00,,0822.4,5.00,0.00,22.4,20.7,00.0,31.5,24.2,09.9,0000.1,0023.57,0017.99,0017.19
2022-12-01 01:19:00,,0822.3,4.99,0.00,22.4,20.7,00.0,31.5,24.2,09.8,0000.1,0023.83,0018.03,0017.22
2022-12-01 01:20:00,,0822.4,4.99,0.00,22.4,20.7,00.0,31.4,24.2,09.7,0000.2,0023.82,0018.06,0017.21
2022-12-01 01:21:00,,0822.3,5.00,0.00,22.3,20.7,00.0,31.4,24.1,09.8,0000.5,0023.93,0018.15,0017.29
2022-12-01 01:22:00,,0822.2,5.00,0.00,22.3,20.6,00.0,31.4,24.1,09.9,0000.6,0024.17,0018.24,0017.38
2022-12-01 01:23:00,,0822.2,5.00,0.00,22.3,20.7,00.0,31.4,24.1,09.9,0001.1,0023.85,0018.22,0017.39
2022-12-01 01:24:00,,0822.2,5.01,0.00,22.3,20.6,00.0,31.4,24.1,09.8,0000.9,0023.57,0018.14,0017.33
2022-12-01 01:25:00,,0822.3,5.01,0.00,22.3,20.6,00.0,31.4,24.1,09.8,0000.7,0023.67,0018.13,0017.32
2022-12-01 01:26:00,,0822.4,4.99,0.00,22.3,20.7,00.0,31.3,24.1,09.8,0000.8,0024.32,0018.31,0017.45
2022-12-01 01:27:00,,0822.4,4.99,0.00,22.3,20.6,00.0,31.3,24.1,09.8,0001.5,0024.49,0018.35,0017.49
2022-12-01 01:28:00,,0822.4,5.00,0.00,22.3,20.6,00.0,31.3,24.1,09.8,0002.2,0024.93,0018.38,0017.51
2022-12-01 01:29:00,,0822.4,5.00,0.00,22.2,20.7,00.0,31.3,24.1,09.8,0002.3,0025.35,0018.42,0017.56
2022-12-01 01:30:00,,0822.4,5.01,0.00,22.2,20.6,00.0,31.3,24.0,09.8,0001.6,0025.15,0018.47,0017.66
2022-12-01 01:31:00,,0822.4,5.00,0.00,22.2,20.5,00.0,31.3,24.0,09.9,0001.0,0025.36,0018.59,0017.80
2022-12-01 01:32:00,,0822.4,5.00,0.00,22.2,20.5,00.0,31.3,24.0,09.9,0001.4,0025.72,0018.68,0017.87
2022-12-01 01:33:00,,0822.4,4.99,0.00,22.2,20.5,00.0,31.2,24.0,09.9,0001.5,0026.39,0018.74,0017.90
2022-12-01 01:34:00,,0822.4,4.99,0.00,22.2,20.5,00.0,31.2,24.0,09.9,0001.4,0026.52,0018.84,0017.99
2022-12-01 01:35:00,,0822.4,4.99,0.00,22.2,20.5,00.0,31.2,24.0,09.9,0001.6,0026.67,0018.92,0018.07
2022-12-01 01:36:00,,0822.4,5.01,0.00,22.2,20.6,00.0,31.2,24.0,09.9,0001.5,0027.17,0019.03,0018.16
2022-12-01 01:37:00,,0822.3,5.01,0.00,22.2,20.6,00.0,31.2,24.0,09.9,0001.7,0026.90,0019.03,0018.19
2022-12-01 01:38:00,,0822.4,5.00,0.00,22.2,20.6,00.0,31.1,24.0,09.8,0001.2,0026.97,0019.02,0018.18
2022-12-01 01:39:00,,0822.3,5.00,0.00,22.2,20.6,00.0,31.1,24.0,09.8,0000.3,0027.23,0019.00,0018.18
2022-12-01 01:40:00,,0822.4,5.00,0.00,22.2,20.7,00.0,31.1,24.0,09.8,-000.0,0027.32,0018.95,0018.15
2022-12-01 01:41:00,,0822.4,4.99,0.00,22.2,21.4,00.0,31.0,24.2,09.8,0001.2,0027.54,0018.93,0018.10
2022-12-01 01:42:00,,0822.3,5.00,0.00,22.3,21.9,00.0,31.1,24.4,09.7,0002.0,0027.45,0018.88,0018.02
2022-12-01 01:43:00,,0822.3,5.00,0.00,22.4,21.8,00.0,31.1,24.4,09.7,0002.4,0027.27,0018.74,0017.92
2022-12-01 01:44:00,,0822.3,5.00,0.00,22.4,21.6,00.0,31.2,24.3,09.7,0001.9,0026.19,0018.59,0017.85
2022-12-01 01:45:00,,0822.2,5.00,0.00,22.4,21.5,00.0,31.2,24.3,09.6,0001.4,0026.02,0018.46,0017.73
2022-12-01 01:46:00,,0822.2,5.00,0.00,22.4,21.4,00.0,31.2,24.3,09.6,0001.1,0025.83,0018.34,0017.63
2022-12-01 01:47:00,,0822.1,4.99,0.00,22.4,21.3,00.0,31.2,24.3,09.6,0001.4,0025.51,0018.25,0017.57
2022-12-01 01:48:00,,0822.1,5.00,0.00,22.4,21.2,00.0,31.2,24.2,09.7,0002.0,0025.42,0018.26,0017.58
2022-12-01 01:49:00,,0822.1,5.00,0.00,22.4,21.2,00.0,31.2,24.2,09.7,0002.1,0025.18,0018.30,0017.64
2022-12-01 01:50:00,,0822.1,5.01,0.00,22.4,21.1,00.0,31.2,24.2,09.7,0002.4,0024.68,0018.33,0017.70
2022-12-01 01:51:00,,0822.0,5.01,0.00,22.4,21.0,00.0,31.3,24.2,09.8,0002.6,0023.85,0018.42,0017.81
2022-12-01 01:52:00,,0821.9,4.99,0.00,22.3,20.9,00.0,31.3,24.2,09.8,0002.3,0023.96,0018.55,0017.97
2022-12-01 01:53:00,,0822.0,4.99,0.00,22.3,20.9,00.0,31.3,24.2,09.8,0002.2,0024.07,0018.67,0018.09
2022-12-01 01:54:00,,0821.9,5.00,0.00,22.3,20.8,00.0,31.3,24.1,09.8,0001.7,0024.00,0018.83,0018.22
2022-12-01 01:55:00,,0822.1,5.00,0.00,22.3,20.8,00.0,31.3,24.1,09.9,0002.1,0024.31,0018.99,0018.34
2022-12-01 01:56:00,,0821.9,5.01,0.00,22.3,20.7,00.0,31.2,24.1,09.9,0001.8,0025.44,0019.14,0018.48
2022-12-01 01:57:00,,0821.8,5.01,0.00,22.2,20.7,00.0,31.2,24.1,09.9,0001.6,0026.02,0019.31,0018.65
2022-12-01 01:58:00,,0821.8,5.00,0.00,22.2,20.7,00.0,31.2,24.1,10.0,0001.3,0025.77,0019.48,0018.83
2022-12-01 01:59:00,,0821.8,4.99,0.00,22.2,20.7,00.0,31.2,24.0,10.0,-000.0,0025.61,0019.68,0019.02
